TimeIST,TemperatureF,Dew PointF,Humidity,Sea Level PressureIn,VisibilityMPH,Wind Direction,Wind SpeedMPH,Gust SpeedMPH,PrecipitationIn,Events,Conditions,WindDirDegrees,DateUTC
12:10 AM,78.8,69.8,74,29.95,2.5,Calm,Calm,-,N/A,,Haze,0,2012-10-15 18:40:00
12:40 AM,78.8,69.8,74,29.95,2.5,Calm,Calm,-,N/A,,Haze,0,2012-10-15 19:10:00
1:10 AM,77.0,68.0,74,29.95,2.5,Calm,Calm,-,N/A,,Haze,0,2012-10-15 19:40:00
1:40 AM,77.0,68.0,74,29.95,2.5,Calm,Calm,-,N/A,,Haze,0,2012-10-15 20:10:00
2:10 AM,77.0,64.4,65,29.92,2.5,Calm,Calm,-,N/A,,Haze,0,2012-10-15 20:40:00
2:30 AM,73,66,72,29.94,2,Calm,Calm,,,,Haze,,2012-10-15 21:00:00
2:40 AM,75.2,64.4,69,29.92,2.5,Calm,Calm,-,N/A,,Haze,0,2012-10-15 21:10:00
3:10 AM,75.2,64.4,69,29.92,2.5,Calm,Calm,-,N/A,,Haze,0,2012-10-15 21:40:00
3:40 AM,73.4,66.2,78,29.92,2.5,Calm,Calm,-,N/A,,Haze,0,2012-10-15 22:10:00
4:10 AM,73.4,68.0,83,29.95,2.5,Calm,Calm,-,N/A,,Haze,0,2012-10-15 22:40:00
4:40 AM,73.4,66.2,78,29.95,2.5,Calm,Calm,-,N/A,,Haze,0,2012-10-15 23:10:00
5:10 AM,71.6,64.4,78,29.95,2.5,Calm,Calm,-,N/A,,Haze,0,2012-10-15 23:40:00
5:30 AM,71,65,75,29.96,2,West,2.3,,,,Haze,270,2012-10-16 00:00:00
5:40 AM,71.6,66.2,83,29.95,2.5,Calm,Calm,-,N/A,,Haze,0,2012-10-16 00:10:00
6:10 AM,71.6,64.4,78,29.95,2.5,Calm,Calm,-,N/A,,Haze,0,2012-10-16 00:40:00
8:10 AM,77.0,62.6,61,29.98,1.4,Calm,Calm,-,N/A,,Haze,0,2012-10-16 02:40:00
8:30 AM,78,63,51,30.00,2,NW,3.5,,,,,320,2012-10-16 03:00:00
9:10 AM,82.4,68.0,62,30.01,2.2,North,3.5,-,N/A,,Smoke,360,2012-10-16 03:40:00
9:40 AM,84.2,68.0,58,30.01,2.5,NNE,3.5,-,N/A,,Smoke,20,2012-10-16 04:10:00
10:10 AM,87.8,69.8,55,30.01,2.5,NNE,5.8,-,N/A,,Smoke,20,2012-10-16 04:40:00
10:40 AM,89.6,69.8,52,29.98,2.5,NNE,5.8,-,N/A,,Smoke,20,2012-10-16 05:10:00
11:30 AM,90,65,34,30.00,2,Calm,Calm,,,,,,2012-10-16 06:00:00
12:10 PM,93.2,66.2,41,29.95,3.7,NNE,4.6,-,N/A,,Unknown,20,2012-10-16 06:40:00
12:40 PM,95.0,64.4,36,29.95,3.7,North,3.5,-,N/A,,Unknown,350,2012-10-16 07:10:00
1:10 PM,96.8,62.6,32,29.92,3.7,North,3.5,-,N/A,,Unknown,350,2012-10-16 07:40:00
1:40 PM,98.6,60.8,29,29.92,3.7,North,3.5,-,N/A,,Unknown,10,2012-10-16 08:10:00
2:10 PM,98.6,60.8,29,29.89,3.7,North,3.5,-,N/A,,Unknown,350,2012-10-16 08:40:00
2:30 PM,96,61,22,29.92,2,Calm,Calm,,,,,,2012-10-16 09:00:00
2:40 PM,98.6,62.6,30,29.89,3.7,North,4.6,-,N/A,,Unknown,10,2012-10-16 09:10:00
3:10 PM,100.4,60.8,27,29.86,3.7,NW,4.6,-,N/A,,Unknown,320,2012-10-16 09:40:00
3:40 PM,100.4,57.2,24,29.86,3.7,NW,3.5,-,N/A,,Unknown,320,2012-10-16 10:10:00
4:10 PM,98.6,59.0,27,29.86,3.7,NW,3.5,-,N/A,,Unknown,310,2012-10-16 10:40:00
4:40 PM,98.6,60.8,29,29.86,3.7,NW,3.5,-,N/A,,Unknown,310,2012-10-16 11:10:00
5:10 PM,96.8,59.0,28,29.86,3.7,NW,3.5,-,N/A,,Unknown,320,2012-10-16 11:40:00
5:30 PM,94,64,28,29.90,2,Calm,Calm,,,,,,2012-10-16 12:00:00
5:40 PM,95.0,59.0,30,29.86,3.7,NNW,3.5,-,N/A,,Unknown,340,2012-10-16 12:10:00
6:10 PM,91.4,64.4,41,29.89,3.1,NE,3.5,-,N/A,,Smoke,50,2012-10-16 12:40:00
6:40 PM,89.6,60.8,38,29.89,2.5,ENE,3.5,-,N/A,,Smoke,60,2012-10-16 13:10:00
7:10 PM,87.8,60.8,40,29.89,2.5,ESE,3.5,-,N/A,,Smoke,120,2012-10-16 13:40:00
7:40 PM,84.2,62.6,48,29.92,2.5,NE,3.5,-,N/A,,Smoke,50,2012-10-16 14:10:00
8:10 PM,82.4,64.4,54,29.95,2.5,NNE,3.5,-,N/A,,Smoke,20,2012-10-16 14:40:00
8:30 PM,79,68,62,29.96,2,Calm,Calm,,,,Haze,,2012-10-16 15:00:00
8:40 PM,80.6,66.2,61,29.95,2.5,NE,3.5,-,N/A,,Smoke,40,2012-10-16 15:10:00
9:10 PM,80.6,66.2,61,29.95,2.2,NE,3.5,-,N/A,,Smoke,40,2012-10-16 15:40:00
10:10 PM,78.8,68.0,69,29.95,1.9,Calm,Calm,-,N/A,,Haze,0,2012-10-16 16:40:00
10:40 PM,77.0,69.8,78,29.95,1.9,Calm,Calm,-,N/A,,Haze,0,2012-10-16 17:10:00
11:10 PM,77.0,68.0,74,29.95,1.9,Calm,Calm,-,N/A,,Haze,0,2012-10-16 17:40:00
11:30 PM,75,70,79,29.97,2,Calm,Calm,,,,Haze,,2012-10-16 18:00:00
11:40 PM,77.0,68.0,74,29.95,1.9,Calm,Calm,-,N/A,,Haze,0,2012-10-16 18:10:00